FENGYUN 1C DEB

Satellite information

Favourite Embed

Satellite Type and Status

DEBRISIN ORBIT

Key statistics

Satellite FENGYUN 1C DEB at a glance.

Uptime

9618

Days in orbit

Revolutions

≈ 14.3

Per day

Orbit

SSO

Sun Synchronous Orbit

Inclination

99.0

Latest

Satellite identification and parameters

Extended collection of information and parameters for FENGYUN 1C DEB.

Object identification

Identified? True

Debris? True

Object name: FENGYUN 1C DEB

International designator: 1999-025BGY

Object number (NORAD): 31146

Object ID (CCSDS): 31146

Country: PEOPLES REPUBLIC OF CHINA (PRC)

Current information (Y/N): Y

RCS size: SMALL

Orbital parameters

Period: 100.902 minutes

Inclination: 99.0291 deg

SMA: 7179.473 km

Apoapsis: 956.076 km

Periapsis: 646.6 km

RAAN: 178.2558 deg

Eccentricy: 0.02155285

Argument of periapsis: 84.5849 deg

Mean anomaly: 277.9875 deg

Mean motion: 14.27131208 rev/day

Mean motion (dot): 0.00002142 rev/day2

B* drag term: 0.00070225362 1/REarth

Two-line elements (TLE)

Creation date: Sept. 8, 2025, 3:16 a.m.

Reference frame: TEME

Reference center: EARTH

Epoch: Sept. 7, 2025, 6:40 p.m. UTC

TLE line 0: 0 FENGYUN 1C DEB

TLE line 1: 1 31146U 99025BGY 25250.77837615 .00002142 00000-0 70225-3 0 9996

TLE line 2: 2 31146 99.0291 178.2558 0215529 84.5849 277.9875 14.27131208953961

Live tracking on map

Real-time ground track for satellite FENGYUN 1C DEB.

In-orbit conjunctions

A list of the most updated potential collisions computed for object FENGYUN 1C DEB.

Target Orbit TCA Probability of collision Miss distance Type
DELTA 1 DEB LEO 2024-11-16 17:42:50 0.0001150662 232.0 (m) DEBRIS
COSMOS 1375 DEB LEO 2024-10-29 01:03:59 0.0001392117 114.0 (m) DEBRIS
SL-8 DEB LEO 2024-07-31 20:14:41 0.001355245 37.0 (m) DEBRIS

Associated space launch

Chinese polar orbiting meteorological satellite

FENGYUN 1C DEB was lifted into orbit during the mission ‘Long March 4B | Feng Yun 1C’, on board a Long March 4B space rocket.

The launch took place on May 10, 1999, 1:33 a.m. from Launch Complex 7.

For more information about the launch, click the button.

Launch to space Long March 4B | Feng Yun 1C
Long March 4B | Feng Yun 1C

Agency: N/A

Status: Launch Successful

Launch date: May 10, 1999, 1:33 a.m. UTC

Rocket: Long March 4B

Launch pad: Launch Complex 7

Location: Taiyuan Satellite Launch Center, People's Republic of China

...

Latest news about this satellite

There are no fresh news available about this satellite. Check back as we update our databases every day.


Newsletter sign-up

Weekly statistics, charts and insights to help you stay on top of the space industry.